Hourly Data Report for September 13, 2017

All times are specified in Local Standard Time (LST). Add 1 hour to adjust for Daylight Saving Time where and when it is observed.

MISCOU ISLAND (AUT)
NEW BRUNSWICK

48°00'32.002" N
64°29'39.008" W
4.00 m
8103050
71719
WMI

Download Data

Hourly Data (September 2017)
Hourly Data Report for September 13, 2017
Temp Definition
°C
Dew Point Temp Definition
°C
Rel Hum Definition
%
Wind Dir Definition
10's deg

Wind Spd Definition
km/h
Visibility Definition
km
Stn Press Definition
kPa
Hmdx Definition


Wind Chill Definition


Weather Definition


TIME
00:00 9.4 8.1 92 20 7   100.52     LegendNANA
01:00 9.4 8.2 93 20 8   100.50     LegendNANA
02:00 9.4 8.7 95 18 7   100.46     LegendNANA
03:00 9.0 8.2 95 23 11   100.44     LegendNANA
04:00 9.6 8.9 96 22 11   100.43     LegendNANA
05:00 13.0 12.5 97 25 11   100.39     LegendNANA
06:00 13.0 12.4 96 25 18   100.41     LegendNANA
07:00 14.2 13.5 96 25 21   100.43     LegendNANA
08:00 15.3 13.8 91 24 27   100.43     LegendNANA
09:00 16.6 13.5 82 25 20   100.46     LegendNANA
10:00 17.7 13.5 77 25 28   100.41     LegendNANA
11:00 18.9 13.5 71 25 30   100.38     LegendNANA
12:00 18.9 13.0 68 25 32   100.37     LegendNANA
13:00 21.0 12.8 59 25 29   100.31     LegendNANA
14:00 21.4 13.2 60 26 26   100.30     LegendNANA
15:00 22.8 13.4 55 25 21   100.25 26   LegendNANA
16:00 23.0 13.0 54 25 21   100.24 26   LegendNANA
17:00 22.0 12.9 56 24 14   100.23 25   LegendNANA
18:00 20.7 12.3 59 23 16   100.22     LegendNANA
19:00 19.3 12.9 67 22 19   100.22     LegendNANA
20:00 19.6 12.3 63 22 19   100.24     LegendNANA
21:00 21.0 11.8 56 22 28   100.21     LegendNANA
22:00 19.0 12.6 67 22 21   100.20     LegendNANA
23:00 18.7 12.6 68 24 25   100.20     LegendNANA

Notes on Data Quality.

Legend

  • E = Estimated
  • M = Missing
  • NA = Not Available
  • ‡ = Partner data that is not subject to review by the National Climate Archives
Date modified: